This is the latest recevied weather packets stored in our database for station/object W4SNA-4. If no packets are shown the sender has not sent any weather packets the latest 10 day(s).
| Time | Temp. | Humidity | Pressure | Rain* | Wind** | Luminosity | Snow |
|---|---|---|---|---|---|---|---|
| 1777495644 | 23.33° C | 75% | 1003.6 hPa | 0 mm | - | - | - |
| 1777495344 | 23.33° C | 75% | 1003.6 hPa | 0 mm | - | - | - |
| 1777495044 | 23.89° C | 75% | 1004 hPa | 0 mm | - | - | - |
| 1777494619 | 23.89° C | 72% | 1004 hPa | 0 mm | - | - | - |
| 1777494324 | 23.89° C | 72% | 1004 hPa | 0 mm | - | - | - |
| 1777494019 | 23.89° C | 76% | 1004.1 hPa | 0 mm | - | - | - |
| 1777493719 | 23.89° C | 72% | 1004.1 hPa | 0 mm | - | - | - |
| 1777493426 | 23.89° C | 71% | 1004.1 hPa | 0 mm | - | - | - |
| 1777493119 | 23.33° C | 73% | 1004.4 hPa | 0 mm | - | - | - |
| 1777492821 | 23.33° C | 72% | 1004.4 hPa | 0 mm | - | - | - |
| 1777492519 | 23.89° C | 73% | 1004.4 hPa | 0 mm | - | - | - |
| 1777492219 | 23.89° C | 74% | 1004.6 hPa | 0 mm | - | - | - |
| 1777491923 | 23.33° C | 73% | 1004.6 hPa | 0 mm | - | - | - |
| 1777491622 | 23.33° C | 75% | 1004.6 hPa | 0 mm | - | - | - |
| 1777491323 | 23.33° C | 75% | 1004.7 hPa | 0 mm | - | - | - |
| 1777491020 | 23.33° C | 75% | 1004.7 hPa | 0 mm | - | - | - |
| 1777490719 | 22.78° C | 76% | 1004.7 hPa | 0 mm | - | - | - |
| 1777490419 | 22.78° C | 78% | 1005.2 hPa | 0 mm | - | - | - |
| 1777490123 | 22.78° C | 78% | 1005.2 hPa | 0 mm | - | - | - |
| 1777489820 | 22.78° C | 81% | 1005.2 hPa | 0 mm | - | - | - |
| 1777489519 | 22.22° C | 80% | 1005.3 hPa | 0 mm | - | - | - |
| 1777489224 | 22.22° C | 84% | 1005.3 hPa | 0 mm | - | - | - |
| 1777488919 | 22.22° C | 78% | 1005.3 hPa | 0 mm | - | - | - |
| 1777488619 | 22.22° C | 80% | 1005.4 hPa | 0 mm | - | - | - |
| 1777488319 | 22.22° C | 79% | 1005.4 hPa | 0 mm | - | - | - |
* Rain latest hour (hover to see other rain measurements)
** Current wind speed in m/s (hover to see current wind gust speed)